Regional Weather Roundup
Issued by NWS Charleston, SC

Current Version | Previous Version | Text Only | Print | Product List | Glossary Off
Versions: 1 2 3 4 5 6 7 8 9 10 11 12 13 14 15 16 17 18 19 20 21 22 23 24 25 26 27 28 29 30 31 32 33 34 35 36 37 38 39 40 41 42 43 44 45 46 47 48 49 50
772 ASUS42 KCHS 190927 RWRCHS Regional Weather Roundup National Weather Service Charleston SC 400 AM EST FRI JAN 19 2018 NOTE: "fair" indicates few or no clouds below 12,000 feet with no significant weather and/or obstructions to visibility. Not all stations are quality controlled. Use data with caution, especially dewpoint observations. SCZ027-030-031-034>040-042>050-191000- ...Southeast South Carolina... CITY SKY/WX TMP DP RH WIND PRES REMARKS N Charleston FAIR 30 18 60 CALM 30.29S Waterfront Prk NOT AVBL Mount Pleasant FAIR 30 23 74 CALM 30.29S Johns Island FAIR 27 23 86 CALM 30.30S Pinopolis N/A 34 21 60 CALM 30.21S Moncks Corner FAIR 23 18 80 CALM 30.28F Summerville FAIR 25 21 86 S3 30.30S Beaufort MCAS FAIR 28 21 75 SW6 30.31S WCI 22 Beaufort Arpt FAIR 32 23 69 W3 30.30S Hilton Head Is FAIR 34 18 51 W5 30.32S WCI 30 Walterboro FAIR 27 19 74 CALM 30.30F Allendale FAIR 28 19 69 CALM 30.28F ...Southern Midlands and Pee Dee... CITY SKY/WX TMP DP RH WIND PRES REMARKS Georgetown FAIR 27 21 80 W3 30.29S Kingstree FAIR 23 21 93 CALM 30.28S Orangeburg FAIR 26 22 84 S3 30.27S Barnwell N/A 27 19 74 CALM 30.28S Aiken FAIR 27 18 69 W8 30.28S WCI 18 Manning FAIR 27 21 80 MISG 30.28R Columbia FAIR 24 20 84 SW3 30.25F Sumter FAIR 26 19 75 CALM 30.23F Florence FAIR 24 19 81 CALM 30.26S Myrtle Beach FAIR 31 20 63 W8 30.28S WCI 23 N Myrtle Beach FAIR 29 23 78 CALM 30.26S $$ GAZ063-065-086>088-099>101-113>116-118-119-134>141-150-191000- ...Southeast Georgia... CITY SKY/WX TMP DP RH WIND PRES REMARKS Savannah Arpt FAIR 30 18 60 W3 30.32F Hunter AAF FAIR 29 18 62 W5 30.29F WCI 24 Fort Stewart FAIR 26 21 79 CALM 30.30F Statesboro FAIR 25 20 81 CALM 30.31R Sylvania FAIR 29 20 69 W3 30.31R Claxton FAIR 26 24 92 CALM 30.32S ...CSRA, Central and far Southeast Georgia... CITY SKY/WX TMP DP RH WIND PRES REMARKS Thomson FAIR 25 17 70 CALM 30.31F Augusta-Bush FAIR 24 19 81 CALM 30.29S Augusta-Daniel FAIR 32 14 47 W3 30.27S Swainsboro FAIR 28 19 69 CALM 30.31S Vidalia FAIR 30 23 74 CALM 30.31S Eastman FAIR 24 17 74 CALM 30.35S Hazlehurst FAIR 29 19 65 CALM 30.31F Alma FAIR 24 21 88 CALM 30.33S Waycross FAIR 27 21 79 CALM 30.33S Jesup FAIR 27 21 80 CALM 30.34R Baxley FAIR 25 23 93 CALM 30.32S Brunswick FAIR 27 23 86 CALM 30.34F Saint Simons FAIR 31 25 78 W3 30.34R $$ SCZ027-028-034-036>038-045-046-048>050-GAZ119-141-191000- ...Lake and Supplemental Coastal Observations... STATION/POSITION TIME TEMP WIND PRES WAVE SWELL AIR SEA DIR/SP/G HT/PER HT/PER/DIR (UTC) (F) (DEG/KT/KT) (MB) (FT/S) (FT/S/D) Winyah Bay 0845 36 290/ 4 1025.0S Lake Murray 0850 36 280/ 6/ 9 1023.4F ACE Basin NERRS 0845 29 CALM 1026.0S Fort Pulaski 0900 37 45 280/ 4/ 5 1026.7 Sapelo Island 0900 35 280/ 3 1027.0 $$ ANZ835-935-AMZ111-154-330-350-352-354-370-450-454-472-191000- ...C-MAN and Buoy Observations... STATION/POSITION TIME TEMP WIND PRES WAVE SWELL AIR SEA DIR/SP/G HT/PER HT/PER/DIR (UTC) (F) (DEG/KT/KT) (MB) (FT/S) (FT/S/D) Buoy 41004 0910 50 69 290/ 10/ 14 1025.5 Buoy 41008 0850 44 50 290/ 8/ 10 1026.8F 2/11 2/ 50/11 Folly Beach CMAN 0900 35 240/ 4/ 5 1026.2S Capers Nearshore 0908 37 48 290/ 10/ 14 1025.5S Fripp Nearshore 0808 38 45 270/ 8/ 10 1025.1F STATION/POSITION TIME TEMP WIND PRES WAVE SWELL AIR SEA DIR/SP/G HT/PER HT/PER/DIR (UTC) (F) (DEG/KT/KT) (MB) (FT/S) (FT/S/D) 5E St. Marys GA 0900 47 N/A 2/11 2/ 90/11 Frying Pan Buoy 0910 49 64 300/ 16/ 21 1024.7 Buoy 41025 0910 43 310/ 12/ 16 1022.6 Cape Lookout NC 0900 290/ 13/ 15 1023.0F Buoy 41002 0850 57 70 320/ 8/ 12 1024.0R 9/11 10/ 30/11 Buoy 41010 NOT AVBL St Augustine FL 0900 35 48 260/ 7/ 7 1027.9R $$

USA.gov is the U.S. government's official web portal to all federal, state and local government web resources and services.